Weather History for Atwater, CA

Change the Weather History Date:

Saturday, October 12, 2013

  Actual Average (KMCE) Record (KMCE)
Temperature  
Mean Temperature 62 °F 65 °F  
Max Temperature 80 °F 80 °F 89 °F (2010)
Min Temperature 44 °F 50 °F 39 °F (2008)
Degree Days  
Heating Degree Days 3    
Month to date heating degree days  
Since 1 July heating degree days  
Cooling Degree Days 0    
Month to date cooling degree days  
Year to date cooling degree days  
Growing Degree Days 12 (Base 50)    
Moisture  
Dew Point 45 °F    
Average Humidity 69    
Maximum Humidity 100    
Minimum Humidity 21    
Precipitation  
Precipitation 0.00 in 0.02 in 0.64 in (2007)
Month to date precipitation 0.14  
Year to date precipitation 9.13  
Since 1 July precipitation 0.45  
Snow  
Snow 0.00 in - - ()
Month to date snowfall  
Since 1 July snowfall  
Since 1 September snowfall  
Snow Depth -    
Sea Level Pressure  
Sea Level Pressure 29.94 in    
Wind  
Wind Speed 3 mph (NNW)    
Max Wind Speed 6 mph    
Max Gust Speed -    
Visibility 10 miles    
Events      
T = Trace of Precipitation, MM = Missing Value Source: NWS Daily Summary

Daily Weather History Graph

Daily Weather History Graph

Search for Another Location

Airport:

Trip Planner

Search our weather history database for the weather conditions in past years. The results will help you decide how hot, cold, wet, or windy it might be!

Date:

Astronomy

Oct. 12, 2013 Rise Set
Actual Time 7:07 AM PDT 6:28 PM PDT
Civil Twilight 6:41 AM PDT 6:55 PM PDT
Nautical Twilight 6:11 AM PDT 7:25 PM PDT
Astronomical Twilight 5:41 AM PDT 7:55 PM PDT
Moon 2:35 PM PDT (10/12) 12:24 AM PDT (10/12)
Length of Visible Light 12h 13m
Length of Day
11h 21m
First Quarter, 60% of the Moon is Illuminated
Oct 12
First Quarter
Oct 18
Full
Oct 26
Last Quarter
Nov 3
New
Nov 9
First Quarter

Hourly Weather History & Observations

Time (PDT) Temp. Windchill Dew Point Humidity Pressure Visibility Wind Dir Wind Speed Gust Speed Precip Events Conditions
12:15 AM 55.4 °F - 46.4 °F 72% 29.97 in 10.0 mi North - - N/A   Clear
12:35 AM 55.4 °F - 46.4 °F 72% 29.97 in 10.0 mi North - - N/A   Clear
12:55 AM 55.4 °F - 46.4 °F 72% 29.98 in 10.0 mi North - - N/A   Clear
1:15 AM 53.6 °F - 46.4 °F 77% 29.98 in 10.0 mi North - - N/A   Clear
1:35 AM 53.6 °F - 46.4 °F 77% 29.97 in 10.0 mi North - - N/A   Clear
1:55 AM 51.8 °F - 46.4 °F 82% 29.97 in 10.0 mi North - - N/A   Clear
2:15 AM 51.8 °F - 48.2 °F 88% 29.97 in 10.0 mi North 5.8 mph - N/A   Clear
2:35 AM 51.8 °F - 48.2 °F 88% 29.97 in 10.0 mi North 3.5 mph - N/A   Clear
2:55 AM 51.8 °F - 48.2 °F 88% 29.96 in 10.0 mi North 4.6 mph - N/A   Clear
3:15 AM 51.8 °F - 48.2 °F 88% 29.96 in 10.0 mi North 5.8 mph - N/A   Clear
3:35 AM 51.8 °F - 46.4 °F 82% 29.96 in 10.0 mi North 3.5 mph - N/A   Clear
3:55 AM 50.0 °F - 48.2 °F 94% 29.96 in 10.0 mi North - - N/A   Clear
4:15 AM 48.2 °F - 48.2 °F 100% 29.96 in 10.0 mi Calm Calm - N/A   Clear
4:35 AM 50.0 °F - 48.2 °F 94% 29.96 in 10.0 mi Calm Calm - N/A   Clear
4:55 AM 51.8 °F - 48.2 °F 88% 29.96 in 10.0 mi Calm Calm - N/A   Clear
5:15 AM 50.0 °F - 48.2 °F 94% 29.96 in 10.0 mi NNW 5.8 mph - N/A   Clear
5:35 AM 50.0 °F - 48.2 °F 94% 29.97 in 10.0 mi NNW 3.5 mph - N/A   Clear
5:55 AM 48.2 °F - 48.2 °F 100% 29.97 in 10.0 mi North - - N/A   Clear
6:15 AM 46.4 °F - 46.4 °F 100% 29.97 in 10.0 mi North - - N/A   Clear
6:35 AM 44.6 °F - 44.6 °F 100% 29.97 in 9.0 mi Calm Calm - N/A   Clear
6:45 AM 44.6 °F - 44.6 °F 100% 29.98 in 10.0 mi Calm Calm - N/A   Clear
6:55 AM 44.6 °F 43.1 °F 44.6 °F 100% 29.98 in 8.0 mi ENE 3.5 mph - N/A   Clear
7:45 AM 44.6 °F - 44.6 °F 100% 29.99 in 10.0 mi Calm Calm - N/A   Clear
8:45 AM 55.4 °F - 48.2 °F 77% 30.00 in 10.0 mi Calm Calm - N/A   Clear
9:45 AM 62.6 °F - 46.4 °F 55% 30.00 in 10.0 mi Calm Calm - N/A   Clear
11:45 AM 73.4 °F - 41.0 °F 31% 29.97 in 10.0 mi Calm Calm - N/A   Clear
12:45 PM 75.2 °F - 39.2 °F 27% 29.95 in 10.0 mi Calm Calm - N/A   Clear
1:45 PM 78.8 °F - 42.8 °F 28% 29.92 in 10.0 mi Calm Calm - N/A   Clear
2:45 PM 80.6 °F - 39.2 °F 23% 29.89 in 10.0 mi Calm Calm - N/A   Clear
3:45 PM 80.6 °F - 37.4 °F 21% 29.88 in 10.0 mi Calm Calm - N/A   Clear
4:56 PM 80.6 °F - 37.4 °F 21% 29.87 in 10.0 mi Calm Calm - N/A   Clear
5:45 PM 77.0 °F - 37.4 °F 24% 29.86 in 10.0 mi Calm Calm - N/A   Clear
6:45 PM 69.8 °F - 41.0 °F 35% 29.87 in 10.0 mi Variable 3.5 mph - N/A   Clear
7:45 PM 64.4 °F - 42.8 °F 45% 29.87 in 10.0 mi Variable 3.5 mph - N/A   Clear
8:45 PM 60.8 °F - 46.4 °F 59% 29.87 in 10.0 mi Variable 3.5 mph - N/A   Clear
9:15 PM 59.0 °F - 44.6 °F 59% 29.88 in 10.0 mi Calm Calm - N/A   Clear
9:35 PM 62.6 °F - 44.6 °F 52% 29.88 in 10.0 mi West 4.6 mph - N/A   Clear
9:55 PM 62.6 °F - 44.6 °F 52% 29.89 in 10.0 mi WNW 4.6 mph - N/A   Clear
10:15 PM 60.8 °F - 42.8 °F 52% 29.89 in 10.0 mi Calm Calm - N/A   Clear
10:35 PM 57.2 °F - 44.6 °F 63% 29.89 in 10.0 mi Calm Calm - N/A   Clear
10:55 PM 57.2 °F - 44.6 °F 63% 29.89 in 10.0 mi Calm Calm - N/A   Clear
11:15 PM 55.4 °F - 44.6 °F 67% 29.89 in 10.0 mi Calm Calm - N/A   Clear
11:35 PM 51.8 °F - 41.0 °F 67% 29.89 in 10.0 mi North - - N/A   Clear
11:55 PM 51.8 °F - 44.6 °F 76% 29.89 in 10.0 mi Calm Calm - N/A   Clear